sat.trackr.live / text

‹ back to catalog

MERIDIAN 7

NORAD 40296 · 2014-069A

PAYLOAD ACTIVE UNKNOWN

§ Identity

Operator
Country
CIS
Launch date
2014-10-30
Launch site
PLMSC
Launch vehicle
Mass (kg)
RCS (m²)
21.23

External: N2YO · Heavens-Above · Gunter

§ Orbital elements

Epoch: 2026-05-24T06:08:26.513952Z

Period
717.88 min
Inclination
63.4432°
Eccentricity
0.6656956
Mean motion
2.00590499 rev/d
Perigee alt
2,500.3 km
Apogee alt
37,859.4 km
Semi-major
26,558.0 km
B*
0.0000e+0
RAAN
217.6858°
Arg perigee
270.7184°
Mean anomaly
19.5763°
Rev number
8,475

§ Raw data

MERIDIAN 71 40296U 14069A   26144.25586243  .00000211  00000+0  00000+0 0  99952 40296  63.4432 217.6858 6656956 270.7184  19.5763  2.00590499 84757

JSON: /api/v1/satellites/40296 · /tle

For live sub-satellite position, see the globe view (requires WebGL).

§ Visibility from observer

Set your observer location to see the next 7 days of passes ≥ 10°. The values pass through the URL so the page stays shareable.

No JS? Fill the form by hand. The geolocation button needs JavaScript.